Location: Caltech
(34.1382°N, 118.1253°W)
Time: 17:21:33
(UTC-07:00)

FENGYUN 3A - Visible Passes

Search period start: 20 August 2014 00:00
Search period end: 30 August 2014 00:00
Orbit: 820 x 834 km, 98.5° (Epoch: 20 August)

Date Brightness Start Highest point End Pass type
(mag) Time Alt. Az. Time Alt. Az. Time Alt. Az.
20 Aug 3.5 21:42:17 68° SE 21:42:52 76° ENE 21:48:13 10° N visible
20 Aug 6.3 23:23:47 10° W 23:23:47 10° W 23:24:07 10° W visible
21 Aug 3.8 21:23:26 46° E 21:24:14 50° ENE 21:29:23 10° N visible
21 Aug 5.9 23:04:57 17° W 23:04:57 17° W 23:08:02 10° NW visible
22 Aug 4.4 21:04:36 30° E 21:05:38 33° ENE 21:10:22 10° N visible
22 Aug 5.4 22:46:06 26° W 22:46:06 26° W 22:50:14 10° NW visible
23 Aug 4.9 20:45:45 20° E 20:47:06 22° ENE 20:51:07 10° NNE visible
23 Aug 4.7 22:27:16 39° W 22:27:16 39° W 22:32:01 10° NNW visible
24 Aug 5.3 20:26:55 13° E 20:28:36 15° ENE 20:31:29 10° NNE visible
24 Aug 4.0 22:08:26 60° W 22:08:26 60° W 22:13:34 10° NNW visible
25 Aug 3.5 21:49:36 88° NE 21:49:36 88° NE 21:54:56 10° NNW visible
26 Aug 3.6 21:30:46 58° E 21:30:54 59° ENE 21:36:09 10° N visible
26 Aug 6.2 23:12:16 14° W 23:12:16 14° W 23:14:10 10° WNW visible
27 Aug 4.2 21:11:56 38° E 21:12:17 38° ENE 21:17:12 10° N visible
27 Aug 5.7 22:53:26 21° W 22:53:26 21° W 22:56:39 10° NW visible
28 Aug 4.7 20:53:06 25° E 20:53:43 26° ENE 20:58:04 10° NNE visible
28 Aug 5.1 22:34:37 31° WNW 22:34:37 31° WNW 22:38:34 10° NNW visible
29 Aug 5.2 20:34:16 17° ENE 20:35:12 17° ENE 20:38:37 10° NNE visible
29 Aug 4.5 22:15:47 47° WNW 22:15:47 47° WNW 22:20:11 10° NNW visible
